Hourly Data Report for December 19, 2016

TORONTO CITY
ONTARIO

43°40'00.000" N
79°24'00.000" W
112.50 m
6158355
71508
XTO

Download Data

Hourly Data (December 2016)
Hourly Data Report for December 19, 2016
TIME
LST
Temp Definition
°C
Dew Point Definition
°C
Rel Hum Definition
%
Precip. Amount Definition
mm

Wind Dir Definition
10's deg

Wind Spd Definition
km/h
Visibility Definition
km
Stn Press Definition
kPa
Hmdx Definition


Wind Chill Definition


Weather Definition


00:00 -9.1 -14.0 68 0.0 LegendMM LegendMM   102.23     LegendNANA
01:00 -8.5 -12.5 73 0.0 LegendMM LegendMM   102.23     LegendNANA
02:00 -8.1 -11.7 75 0.0 LegendMM LegendMM   102.24     LegendNANA
03:00 -7.1 -13.2 62 0.0 LegendMM LegendMM   102.30     LegendNANA
04:00 -7.3 -13.5 61 0.0 LegendMM LegendMM   102.26     LegendNANA
05:00 -7.7 -13.2 65 0.0 LegendMM LegendMM   102.33     LegendNANA
06:00 -8.1 -13.6 65 0.0 LegendMM LegendMM   102.35     LegendNANA
07:00 -8.4 -13.9 64 0.0 LegendMM LegendMM   102.40     LegendNANA
08:00 -8.8 -13.8 67 0.0 LegendMM LegendMM   102.47     LegendNANA
09:00 -8.9 -14.4 64 0.0 LegendMM LegendMM   102.53     LegendNANA
10:00 -8.2 -14.7 59 0.0 LegendMM LegendMM   102.57     LegendNANA
11:00 -7.8 -14.5 59 0.0 LegendMM LegendMM   102.56     LegendNANA
12:00 -7.5 -14.2 59 0.0 LegendMM LegendMM   102.49     LegendNANA
13:00 -6.9 -14.3 56 0.0 LegendMM LegendMM   102.44     LegendNANA
14:00 -6.7 -14.2 55 0.0 LegendMM LegendMM   102.37     LegendNANA
15:00 -6.7 -14.3 55 0.0 LegendMM LegendMM   102.29     LegendNANA
16:00 -6.8 -14.4 55 0.0 LegendMM LegendMM   102.26     LegendNANA
17:00 -7.2 -16.1 49 0.0 LegendMM LegendMM   102.28     LegendNANA
18:00 -7.5 -16.4 49 0.0 LegendMM LegendMM   102.27     LegendNANA
19:00 -7.8 -13.7 62 0.0 LegendMM LegendMM   102.24     LegendNANA
20:00 -7.5 -12.6 67 0.0 LegendMM LegendMM   102.19     LegendNANA
21:00 -7.8 -12.4 69 0.0 LegendMM LegendMM   102.14     LegendNANA
22:00 -7.8 -12.1 71 0.0 LegendMM LegendMM   102.12     LegendNANA
23:00 -7.7 -11.8 73 0.0 LegendMM LegendMM   102.07     LegendNANA

Notes on Data Quality.

Legend

  • E = Estimated
  • M = Missing
  • NA = Not Available*
  • [empty] = Indicates an unobserved value
Date modified: